User: anonymous   Login
Location: Unspecified
(0.0000°N, 0.0000°E)
Time: 09:24:41
(UTC+00:00)
Language:

Nadezhda 1 - Orbit

View from above orbital plane
View from above orbital plane
View from above satellite
View from above satellite

Ground track
Ground track

The orbit data is extracted from the following two-line orbital elements,

1 20103U 89050A   17327.87497390  .00000056  00000-0  42671-4 0  9990
2 20103  82.9609  90.8739 0037400 188.6185 286.7658 13.74556751424061
Epoch (UTC): 23 November 2017 20:59:57
Eccentricity: 0.0037400
inclination: 82.9609°
perigee height: 956 km
apogee height: 1011 km
right ascension of ascending node: 90.8739°
argument of perigee: 188.6185°
revolutions per day: 13.74556751
mean anomaly at epoch: 286.7658°
orbit number at epoch: 42406

The dashed part of the orbit path shows where the satellite is in the earth's shadow,  

DLR